Flight Track Log - Related Links

Times and Time Zones

All times are in EDT time to prevent confusion due to time zone crossing. See the BJS542 flight status page for this flight to view local times or setup timezone preferences in your user account.

Time Position Orientation Groundspeed Altitude Reporting Facility
EDT Latitude Longitude Course Direction KTS MPH feet Rate Location/Type
Wed 08:43:12 AM 41.9333 -87.9000 180° South 179 206 2,800  Level Chicago TRACON
Wed 08:44:18 AM 41.8667 -87.9000 180° South 259 298 5,000 1,400 Climbing Chicago TRACON
Wed 08:45:12 AM 41.8167 -87.8703 156° South 261 300 5,600 2,172 Climbing Chicago Center
Wed 08:46:14 AM 41.7511 -87.8136 147° Southeast 276 318 9,200 3,774 Climbing Chicago Center
Wed 08:47:16 AM 41.6617 -87.7486 151° Southeast 303 349 13,400 3,484 Climbing Chicago Center
Wed 08:48:18 AM 41.5775 -87.6858 151° Southeast 338 389 16,400 2,661 Climbing Chicago Center
Wed 08:49:20 AM 41.4789 -87.6117 151° Southeast 396 456 18,900 2,585 Climbing Chicago Center
Wed 08:50:21 AM 41.3633 -87.5617 162° South 440 506 21,700 2,732 Climbing Chicago Center
Wed 08:51:23 AM 41.2389 -87.5392 172° South 447 514 24,500 2,710 Climbing Chicago Center
Wed 08:52:25 AM 41.1128 -87.5086 170° South 457 526 27,300 2,661 Climbing Chicago Center
Wed 08:53:27 AM 40.9861 -87.4750 169° South 463 533 30,000 2,565 Climbing Chicago Center
Wed 08:54:29 AM 40.8297 -87.4333 169° South 475 547 32,600 1,597 Climbing Chicago Center
Wed 08:55:31 AM 40.6931 -87.3967 169° South 498 573 33,300 1,210 Climbing Chicago Center
Wed 08:56:33 AM 40.5511 -87.3608 169° South 516 594 35,100 1,824 Climbing Chicago Center
Wed 08:57:36 AM 40.4217 -87.3017 161° South 516 594 37,100 2,400 Climbing Chicago Center
Wed 08:58:38 AM 40.2817 -87.1761 146° Southeast 511 588 40,100 2,274 Climbing Chicago Center
Wed 08:59:40 AM 40.1728 -87.0733 144° Southeast 488 562 41,800 1,293 Climbing Chicago Center
Wed 09:00:34 AM 40.0844 -86.9925 145° Southeast 483 556 42,600 776 Climbing Indianapolis Center
Wed 09:01:36 AM 39.9753 -86.8925 145° Southeast 482 555 43,300 919 Climbing Indianapolis Center
Wed 09:02:38 AM 39.8397 -86.7806 148° Southeast 485 558 44,500 823 Climbing Indianapolis Center
Wed 09:03:40 AM 39.7350 -86.6797 143° Southeast 479 551 45,000 242 Climbing Indianapolis Center
Wed 09:04:42 AM 39.6703 -86.5231 118° Southeast 505 581 45,000  Level Indianapolis Center
Wed 09:05:44 AM 39.6331 -86.3339 104° East 518 596 45,000  Level Indianapolis Center
Wed 09:06:46 AM 39.5919 -86.1328 105° East 525 604 45,000  Level Indianapolis Center
Wed 09:07:48 AM 39.5556 -85.9542 105° East 521 600 45,000  Level Indianapolis Center
Wed 09:08:50 AM 39.5178 -85.7742 105° East 521 600 45,000  Level Indianapolis Center
Wed 09:09:52 AM 39.4806 -85.5928 105° East 524 603 45,000  Level Indianapolis Center
Wed 09:10:54 AM 39.4350 -85.3761 105° East 523 602 45,000  Level Indianapolis Center
Wed 09:11:56 AM 39.3967 -85.1950 105° East 524 603 45,000  Level Indianapolis Center
Wed 09:12:58 AM 39.3578 -85.0156 106° East 523 602 45,000  Level Indianapolis Center
Wed 09:14:00 AM 39.3172 -84.8350 106° East 526 605 45,000  Level Indianapolis Center
Wed 09:15:02 AM 39.2775 -84.6553 106° East 525 604 45,000  Level Indianapolis Center
Wed 09:16:04 AM 39.2378 -84.4758 106° East 524 603 45,000  Level Indianapolis Center
Wed 09:17:06 AM 39.1911 -84.2608 106° East 521 600 45,000  Level Indianapolis Center
Wed 09:18:08 AM 39.1542 -84.0900 106° East 522 601 45,000  Level Indianapolis Center
Wed 09:19:10 AM 39.1136 -83.9092 106° East 523 602 45,000  Level Indianapolis Center
Wed 09:20:12 AM 39.0672 -83.7061 106° East 520 598 45,000  Level Indianapolis Center
Wed 09:21:14 AM 39.0269 -83.5283 106° East 519 597 45,000  Level Indianapolis Center
Wed 09:22:16 AM 38.9844 -83.3508 107° East 520 598 45,000  Level Indianapolis Center
Wed 09:23:18 AM 38.9422 -83.1717 107° East 524 603 45,000  Level Indianapolis Center
Wed 09:24:20 AM 38.9006 -82.9942 107° East 519 597 45,000  Level Indianapolis Center
Wed 09:25:22 AM 38.8575 -82.8172 107° East 519 597 45,000  Level Indianapolis Center
Wed 09:26:24 AM 38.8075 -82.6050 107° East 521 600 45,000 -48 Level Indianapolis Center
Wed 09:27:26 AM 38.7639 -82.4278 107° East 519 597 44,900 -532 Descending Indianapolis Center
Wed 09:28:28 AM 38.7214 -82.2525 107° East 517 595 43,900 -1,161 Descending Indianapolis Center
Wed 09:29:30 AM 38.6783 -82.0772 107° East 519 597 42,500 -1,452 Descending Indianapolis Center
Wed 09:30:32 AM 38.6339 -81.9008 108° East 521 600 40,900 -1,645 Descending Indianapolis Center
Wed 09:31:34 AM 38.5894 -81.7250 108° East 526 605 39,100 -2,081 Descending Indianapolis Center
Wed 09:32:36 AM 38.5378 -81.5189 108° East 521 600 36,600 -2,323 Descending Indianapolis Center
Wed 09:33:38 AM 38.4961 -81.3517 108° East 504 580 34,300 -1,694 Descending Indianapolis Center
Wed 09:34:40 AM 38.4517 -81.1819 108° East 506 582 33,100 -629 Descending Indianapolis Center
Wed 09:35:42 AM 38.4067 -81.0067 108° East 518 596 33,000 -48 Descending Indianapolis Center
Wed 09:36:44 AM 38.3519 -80.7928 108° East 531 611 33,000  Level Indianapolis Center
Wed 09:37:46 AM 38.3067 -80.6147 108° East 530 610 33,000  Level Indianapolis Center
Wed 09:38:48 AM 38.2600 -80.4353 108° East 535 616 33,000 -484 Level Indianapolis Center
Wed 09:39:50 AM 38.2119 -80.2581 109° East 530 610 32,000 -1,161 Descending Indianapolis Center
Wed 09:40:52 AM 38.1611 -80.0633 108° East 529 609 30,600 -1,299 Descending Indianapolis Center
Wed 09:42:04 AM 38.1056 -79.8617 109° East 524 603 29,100 -1,273 Descending Washington Center
Wed 09:43:04 AM 38.0614 -79.6956 109° East 510 587 27,800 -1,041 Descending Washington Center
Wed 09:44:05 AM 38.0206 -79.5456 109° East 498 573 27,000 -393 Descending Washington Center
Wed 09:45:06 AM 37.9761 -79.3747 108° East 498 573 27,000  Level Washington Center
Wed 09:46:04 AM 37.9292 -79.1986 109° East 508 585 27,000  Level Washington Center
Wed 09:47:05 AM 37.8800 -79.0306 110° East 514 592 27,000  Level Washington Center
Wed 09:48:06 AM 37.8347 -78.8600 109° East 514 592 27,000  Level Washington Center
Wed 09:49:04 AM 37.7811 -78.6739 110° East 509 586 27,000 -610 Level Washington Center
Wed 09:50:04 AM 37.7311 -78.5089 111° Southeast 509 586 25,800 -1,983 Descending Washington Center
Wed 09:51:05 AM 37.6828 -78.3444 110° East 509 586 23,000 -2,361 Descending Washington Center
Wed 09:52:06 AM 37.6364 -78.1828 110° East 497 572 21,000 -1,059 Descending Washington Center
Wed 09:53:04 AM 37.5894 -78.0344 112° Southeast 484 557 20,900 -966 Descending Washington Center
Wed 09:54:04 AM 37.5444 -77.8864 111° Southeast 461 531 19,100 -1,700 Descending Washington Center
Wed 09:55:04 AM 37.5222 -77.7258 100° East 455 524 17,500 -1,636 Descending Washington Center
Wed 09:56:05 AM 37.5125 -77.5711 94° East 450 518 15,800 -1,574 Descending Washington Center
Wed 09:57:06 AM 37.5003 -77.4269 96° East 440 506 14,300 -908 Descending Washington Center
Wed 09:58:04 AM 37.4897 -77.2878 95° East 423 487 14,000 -153 Descending Washington Center
Wed 09:59:04 AM 37.4828 -77.1806 95° East 401 461 14,000 -58 Level Washington Center
Wed 09:59:47 AM 37.4739 -77.0519 95° East 419 482 13,900 -58 Descending Washington Center
Wed 10:00:48 AM 37.4631 -76.9053 95° East 421 484 13,900  Level Washington Center
Wed 10:02:05 AM 37.4483 -76.7272 96° East 419 482 13,900  Level Washington Center
Wed 10:03:05 AM 37.4372 -76.5778 95° East 424 488 13,900  Level Washington Center
Wed 10:03:50 AM 37.4297 -76.4653 95° East 425 489 13,900 58 Level Washington Center
Wed 10:04:49 AM 37.4033 -76.3211 103° East 424 488 14,000  Climbing Washington Center
Wed 10:06:04 AM 37.2808 -76.2628 159° South 349 402 13,900 -590 Descending Washington Center
Wed 10:06:51 AM 37.1931 -76.2542 176° South 348 400 12,800 -1,570 Descending Washington Center
Wed 10:07:51 AM 37.1014 -76.2378 172° South 318 366 11,100 -1,657 Descending Washington Center
Wed 10:09:05 AM 37.0078 -76.2161 170° South 322 371 9,100 -1,969 Descending Washington Center
Wed 10:09:59 AM 36.9325 -76.2336 191° South 263 303 6,900 -2,035 Descending Washington Center
Wed 10:11:00 AM 36.8822 -76.2981 226° Southwest 255 293 5,200 -1,438 Descending Washington Center
Wed 10:12:00 AM 36.8339 -76.3469 219° Southwest 233 268 4,000 -1,180 Descending Washington Center
Wed 10:13:02 AM 36.7903 -76.2947 136° Southeast 228 262 2,800 -1,152 Descending Washington Center
Wed 10:14:05 AM 36.8344 -76.2589 33° Northeast 175 201 1,600 -1,065 Descending Washington Center
Wed 10:15:06 AM 36.8658 -76.2306 36° Northeast 123 142 600 -984 Descending Washington Center

Login

Don't have an account? Register now (free) for customized features, flight alerts, and more!